Weather History for KUDG - March, 2013

Change the Weather History Date:

Monday, March 11, 2013

  Actual Average (KFLO) Record (KFLO)
Temperature  
Mean Temperature 53 °F 54 °F  
Max Temperature 69 °F 66 °F 86 °F (1986)
Min Temperature 37 °F 42 °F 26 °F (1960)
Degree Days  
Heating Degree Days 12 11  
Month to date heating degree days 136  
Since 1 July heating degree days 2202  
Cooling Degree Days 0 0  
Month to date cooling degree days 0  
Year to date cooling degree days 6  
Growing Degree Days 3 (Base 50)    
Moisture  
Dew Point 43 °F    
Average Humidity 66    
Maximum Humidity 93    
Minimum Humidity 46    
Precipitation  
Precipitation 0.00 in 0.11 in 2.36 in (1962)
Month to date precipitation 1.23  
Year to date precipitation 7.38  
Sea Level Pressure  
Sea Level Pressure 30.09 in    
Wind  
Wind Speed 5 mph (SE)    
Max Wind Speed 20 mph    
Max Gust Speed 26 mph    
Visibility 10 miles    
Events      
T = Trace of Precipitation, MM = Missing Value Source: NWS Daily Summary

Daily Weather History Graph

Daily Weather History Graph

Search for Another Location

Airport or City:

Trip Planner

Search our weather history database for the weather conditions in past years. The results will help you decide how hot, cold, wet, or windy it might be!

Date:

Astronomy

Mar. 11, 2013 Rise Set
Actual Time 7:35 AM EDT 7:24 PM EDT
Civil Twilight 7:10 AM EDT 7:49 PM EDT
Nautical Twilight 6:41 AM EDT 8:18 PM EDT
Astronomical Twilight 6:11 AM EDT 8:47 PM EDT
Moon 7:09 AM EDT (3/11) 7:32 PM EDT (3/11)
Length of Visible Light 12h 39m
Length of Day
11h 49m
Waning Crescent, 0% of the Moon is Illuminated
Mar 11
Waning Crescent
Mar 11
New
Mar 19
First Quarter
Mar 27
Full
Apr 3
Last Quarter

Hourly Weather History & Observations

Time (EDT) Temp. Windchill Dew Point Humidity Pressure Visibility Wind Dir Wind Speed Gust Speed Precip Events Conditions
12:15 AM 42.8 °F - 30.2 °F 61% 30.25 in - Calm Calm - N/A   Clear
12:35 AM 44.6 °F - 28.4 °F 53% 30.24 in - Calm Calm - N/A   Clear
12:55 AM 42.8 °F - 28.4 °F 57% 30.24 in - Calm Calm - N/A   Clear
1:15 AM 42.8 °F - 28.4 °F 57% 30.23 in - Calm Calm - N/A   Clear
1:35 AM 41.0 °F - 28.4 °F 61% 30.22 in - Calm Calm - N/A   Clear
1:55 AM 41.0 °F - 30.2 °F 65% 30.22 in - Calm Calm - N/A   Clear
2:15 AM 41.0 °F - 26.6 °F 57% 30.22 in - Calm Calm - N/A   Clear
2:35 AM 39.2 °F - 30.2 °F 70% 30.21 in - Calm Calm - N/A   Clear
2:55 AM 39.2 °F - 28.4 °F 65% 30.20 in - Calm Calm - N/A   Clear
3:15 AM 37.4 °F - 28.4 °F 70% 30.20 in - Calm Calm - N/A   Clear
3:35 AM 37.4 °F - 32.0 °F 81% 30.20 in - Calm Calm - N/A   Clear
3:55 AM 37.4 °F - 32.0 °F 81% 30.19 in - Calm Calm - N/A   Clear
4:15 AM 37.4 °F 34.9 °F 30.2 °F 75% 30.17 in - ENE 3.5 mph - N/A   Clear
4:35 AM 37.4 °F 34.9 °F 30.2 °F 75% 30.17 in - East 3.5 mph - N/A   Clear
4:55 AM 37.4 °F - 32.0 °F 81% 30.16 in - Calm Calm - N/A   Partly Cloudy
5:15 AM 39.2 °F - 33.8 °F 81% 30.17 in - Calm Calm - N/A   Partly Cloudy
5:35 AM 37.4 °F - 33.8 °F 87% 30.17 in - Calm Calm - N/A   Unknown
5:55 AM 39.2 °F - 33.8 °F 81% 30.16 in - Calm Calm - N/A   Clear
6:15 AM 39.2 °F 35.9 °F 33.8 °F 81% 30.16 in - East 4.6 mph - N/A   Clear
6:35 AM 39.2 °F - 33.8 °F 81% 30.15 in - Calm Calm - N/A   Clear
6:55 AM 41.0 °F - 33.8 °F 76% 30.16 in - Calm Calm - N/A   Clear
7:15 AM 39.2 °F 35.9 °F 35.6 °F 87% 30.16 in - NNE 4.6 mph - N/A   Unknown
7:35 AM 39.2 °F - 35.6 °F 87% 30.16 in - Calm Calm - N/A   Unknown
7:55 AM 39.2 °F - 37.4 °F 93% 30.16 in - Calm Calm - N/A   Unknown
8:15 AM 42.8 °F - 37.4 °F 81% 30.16 in - Calm Calm - N/A   Mostly Cloudy
8:35 AM 42.8 °F 41.1 °F 37.4 °F 81% 30.15 in - NE 3.5 mph - N/A   Scattered Clouds
8:55 AM 44.6 °F - 39.2 °F 81% 30.15 in - Calm Calm - N/A   Scattered Clouds
9:15 AM 46.4 °F 45.2 °F 39.2 °F 76% 30.15 in - East 3.5 mph - N/A   Scattered Clouds
9:35 AM 48.2 °F - 44.6 °F 87% 30.15 in - ESE 4.6 mph - N/A   Unknown
9:55 AM 51.8 °F - 44.6 °F 76% 30.15 in - ESE 4.6 mph - N/A   Overcast
10:15 AM 53.6 °F - 46.4 °F 77% 30.14 in - ESE 4.6 mph - N/A   Overcast
10:55 AM 57.2 °F - 48.2 °F 72% 30.13 in - ESE 5.8 mph - N/A   Unknown
11:15 AM 60.8 °F - 50.0 °F 68% 30.14 in - SE 8.1 mph - N/A   Overcast
11:35 AM 62.6 °F - 51.8 °F 68% 30.14 in - SE 6.9 mph - N/A   Overcast
11:55 AM 64.4 °F - 51.8 °F 64% 30.13 in - SSE 8.1 mph - N/A   Overcast
12:15 PM 66.2 °F - 51.8 °F 60% 30.11 in 10.0 mi SSE 11.5 mph - N/A   Overcast
12:35 PM 68.0 °F - 50.0 °F 52% 30.10 in 10.0 mi South 13.8 mph 18.4 mph N/A   Overcast
12:55 PM 69.8 °F - 51.8 °F 53% 30.10 in 10.0 mi SSE 12.7 mph 20.7 mph N/A   Overcast
1:15 PM 69.8 °F - 50.0 °F 49% 30.09 in 10.0 mi South 13.8 mph 21.9 mph N/A   Overcast
1:35 PM 68.0 °F - 50.0 °F 52% 30.09 in 10.0 mi SSE 12.7 mph - N/A   Overcast
1:55 PM 68.0 °F - 51.8 °F 56% 30.08 in 10.0 mi South 12.7 mph 21.9 mph N/A   Overcast
2:15 PM 68.0 °F - 50.0 °F 52% 30.07 in 10.0 mi SSE 13.8 mph 17.3 mph N/A   Overcast
2:35 PM 68.0 °F - 51.8 °F 56% 30.05 in 10.0 mi South 15.0 mph - N/A   Mostly Cloudy
2:55 PM 69.8 °F - 51.8 °F 53% 30.04 in 10.0 mi South 12.7 mph 19.6 mph N/A   Overcast
3:15 PM 69.8 °F - 50.0 °F 49% 30.03 in 10.0 mi South 16.1 mph 23.0 mph N/A   Overcast
3:35 PM 69.8 °F - 50.0 °F 49% 30.02 in 10.0 mi South 15.0 mph - N/A   Overcast
3:55 PM 69.8 °F - 50.0 °F 49% 30.01 in 10.0 mi South 13.8 mph 20.7 mph N/A   Overcast
4:15 PM 69.8 °F - 50.0 °F 49% 30.00 in 10.0 mi South 16.1 mph - N/A   Overcast
4:35 PM 69.8 °F - 50.0 °F 49% 29.99 in 10.0 mi SSE 10.4 mph - N/A   Overcast
4:55 PM 69.8 °F - 51.8 °F 53% 29.99 in 10.0 mi SE 18.4 mph - N/A   Mostly Cloudy
5:15 PM 69.8 °F - 51.8 °F 53% 29.99 in 10.0 mi SSE 15.0 mph - N/A   Mostly Cloudy
5:35 PM 69.8 °F - 51.8 °F 53% 29.98 in 10.0 mi SSE 12.7 mph - N/A   Scattered Clouds
5:55 PM 69.8 °F - 48.2 °F 46% 29.98 in 10.0 mi SSE 11.5 mph - N/A   Scattered Clouds
6:15 PM 68.0 °F - 48.2 °F 49% 29.97 in 10.0 mi SSE 13.8 mph 26.5 mph N/A   Partly Cloudy
6:35 PM 68.0 °F - 48.2 °F 49% 29.97 in 10.0 mi SSE 12.7 mph 18.4 mph N/A   Partly Cloudy
6:55 PM 66.2 °F - 48.2 °F 52% 29.95 in 10.0 mi SSE 19.6 mph 23.0 mph N/A   Clear
7:15 PM - - - N/A% 29.96 in 10.0 mi SSE 15.0 mph 23.0 mph N/A   Clear
7:35 PM 64.4 °F - 50.0 °F 59% 29.97 in 10.0 mi SSE 10.4 mph - N/A   Clear
7:55 PM 64.4 °F - 50.0 °F 59% 29.97 in 10.0 mi SSE 13.8 mph - N/A   Partly Cloudy
8:15 PM 64.4 °F - 51.8 °F 64% 29.95 in 10.0 mi SE 13.8 mph - N/A   Clear
8:35 PM 64.4 °F - 51.8 °F 64% 29.97 in 10.0 mi SSE 9.2 mph - N/A   Partly Cloudy
8:55 PM 64.4 °F - 51.8 °F 64% 29.97 in 10.0 mi SSE 9.2 mph - N/A   Mostly Cloudy
9:15 PM 64.4 °F - 51.8 °F 64% 29.96 in 10.0 mi SSE 9.2 mph - N/A   Partly Cloudy
9:35 PM 62.6 °F - 51.8 °F 68% 29.95 in 10.0 mi SE 9.2 mph - N/A   Clear
9:55 PM 62.6 °F - 51.8 °F 68% 29.96 in 10.0 mi SSE 9.2 mph - N/A   Clear
10:15 PM 62.6 °F - 51.8 °F 68% 29.96 in 10.0 mi SE 9.2 mph - N/A   Clear
10:35 PM 62.6 °F - 51.8 °F 68% 29.96 in 10.0 mi SSE 10.4 mph - N/A   Clear
10:55 PM 62.6 °F - 51.8 °F 68% 29.96 in 10.0 mi SSE 9.2 mph - N/A   Clear
11:15 PM 62.6 °F - 51.8 °F 68% 29.95 in 10.0 mi SSE 9.2 mph - N/A   Partly Cloudy
11:35 PM 62.6 °F - 51.8 °F 68% 29.92 in 10.0 mi ESE 9.2 mph - N/A   Partly Cloudy
11:55 PM 62.6 °F - 51.8 °F 68% 29.94 in 10.0 mi SSE 9.2 mph - N/A   Mostly Cloudy